Location: McDonald Observatory
(30.6717°N, 104.0221°W)
Time: 17:18:49
(UTC-05:00)

Daily predictions for brighter satellites

Satellite Brightness Start Highest point End
(mag) Time Altitude Azimuth Time Altitude Azimuth Time Altitude Azimuth
Cosmos 2151 4.3 19:41:11 10° NNE 19:44:15 19° ENE 19:47:17 10° ESE
Cosmos 1766 Rocket 3.6 19:39:52 10° N 19:44:18 69° E 19:48:44 10° SSE
SL-14 R/B 3.1 19:43:56 10° N 19:47:47 77° E 19:51:38 10° S
SMAP 3.7 19:46:43 10° S 19:51:18 62° W 19:55:55 10° NNW
Cosmos 2221 3.8 19:51:36 10° SE 19:54:36 19° E 19:57:38 10° NE
Cosmos 2366 rocket 4.0 19:49:01 10° S 19:55:15 74° E 20:01:26 10° N
ISS -3.2 19:53:51 10° NNW 19:56:58 39° NE 20:00:03 10° ESE
Milstar 3 Cent rocket 3.8 19:48:56 10° W 20:00:25 53° SSW 20:06:19 10° SE
ATLAS 3B CENTAUR R/B 3.5 19:57:35 10° WSW 20:01:30 37° S 20:10:23 10° SE
METEOR-M 4.1 19:57:43 10° SSE 20:02:59 63° ENE 20:08:16 10° N
Cosmos 1500 Rocket 4.2 19:59:51 10° NNE 20:03:45 32° E 20:07:37 10° SE
SPOT 3 Rocket 3.6 19:58:58 10° SSE 20:03:59 55° ENE 20:09:04 10° N
Cosmos 1315 Rocket 4.1 20:05:22 10° NNE 20:08:25 20° ENE 20:11:27 10° SE
BREEZE-M DEB (TANK) 3.1 20:08:16 10° N 20:09:23 13° NE 20:09:31 13° NE
COSMOS 2428 4.4 20:13:39 10° NNE 20:16:06 13° ENE 20:16:20 13° ENE
Cosmos 1833 4.3 20:11:46 10° SSW 20:17:30 86° WNW 20:23:11 10° NNE
BREEZE M DEB (TANK) 4.5 20:13:49 10° WNW 20:18:19 31° WSW 20:20:40 10° S
Cosmos 2098 Rocket 4.0 20:15:32 10° SE 20:18:36 23° E 20:22:14 10° NNE
Cosmos 2058 3.1 20:14:40 10° N 20:18:44 48° E 20:22:44 10° SSE
Cosmos 2056 Rocket 3.4 20:14:02 10° NNW 20:19:21 81° ENE 20:24:33 10° SSE
NOAA 12 4.1 20:14:13 10° SSE 20:19:22 58° ENE 20:24:35 10° N
DMSP B5D1-3 4.5 20:15:00 10° NNE 20:20:08 85° ESE 20:25:17 10° SSW
Meteor 2-1 Rocket 4.2 20:15:18 10° S 20:20:59 79° E 20:26:51 10° N
Cosmos 2219 3.9 20:17:39 10° SSE 20:22:35 30° ESE 20:27:33 10° NE
RESURS DK-1 3.6 20:19:41 10° NNE 20:22:49 21° ENE 20:23:04 20° ENE
COSMO-SKYMED 1 3.8 20:19:00 10° N 20:23:09 45° WNW 20:27:16 10° SSW
Cosmos 2360 Rocket 2.8 20:18:19 10° N 20:23:28 35° ENE 20:28:04 13° SE
Cosmos 1626 2.0 20:20:07 10° N 20:23:52 83° E 20:27:35 10° S
SAR-Lupe-3 4.4 20:25:31 10° NNE 20:29:06 85° E 20:32:41 10° SSW
Cosmos 2322 Rocket 2.4 20:24:03 10° NNW 20:29:39 73° WSW 20:35:13 10° SSE
Cosmos 1821 Rocket 4.2 20:27:12 10° SSE 20:32:56 44° E 20:38:45 10° NNE
Cosmos 1452 Rocket 3.8 20:32:17 10° N 20:37:16 43° ENE 20:40:42 19° SE
OAO 1 Rocket 4.4 20:33:01 10° WSW 20:38:20 83° NNW 20:41:07 29° ENE
Cosmos 2239 Rocket 4.5 20:35:59 10° SSE 20:41:55 54° E 20:47:52 10° NNE
Cosmos 1934 Rocket 4.4 20:36:26 10° SSE 20:42:13 40° E 20:48:04 10° NNE
USA 267 3.3 20:37:34 10° NE 20:44:07 83° NW 20:50:39 10° SW
Atlas Centaur 2 2.1 20:39:11 10° W 20:44:14 88° S 20:47:12 32° E
ALOS 2.4 20:40:46 10° S 20:45:25 77° WSW 20:50:06 10° NNW
Cosmos 1727 Rocket 4.4 20:42:03 10° NNW 20:48:22 69° W 20:54:37 10° S
Cosmos 2322 3.9 20:43:37 10° N 20:49:07 48° ENE 20:51:21 32° ESE
FENGYUN 3A 3.8 20:47:33 10° S 20:52:54 73° WSW 20:58:19 10° NNW
Cosmos 1703 4.2 20:50:36 10° NNW 20:54:23 48° W 20:58:08 10° SSW
ATLAS 2A CENTAUR R/B 2.5 20:52:26 10° SW 20:53:41 22° S 20:53:41 22° S
CZ-4C R/B 1.9 20:50:14 10° SSW 20:55:09 65° ESE 20:57:35 32° NE
CZ-3 Stage 3 2.5 20:54:25 10° W 20:55:05 21° W 20:55:05 21° W
Skynet4D Del rocket 4.4 20:52:49 10° WSW 20:59:50 65° S 21:03:04 37° ESE
Tiangong 1 2.6 20:58:54 10° WNW 21:00:25 29° WNW 21:00:25 29° WNW
ASTRO E2 2.6 21:01:34 10° W 21:05:26 77° NNW 21:05:26 77° NNW
Cosmos 1048 Rocket 4.2 21:07:46 10° SSW 21:12:53 66° WNW 21:17:59 10° N
Cosmos 2219 Rocket 4.0 21:09:32 10° N 21:11:01 16° NNE 21:11:01 16° NNE
Iridium 4 Rocket 4.4 21:12:29 10° SSW 21:17:35 53° W 21:23:07 10° N
H-2A R/B 3.3 21:18:13 57° W 21:18:13 57° W 21:21:56 10° NNW
Cosmos 1726 4.0 21:20:44 10° SSW 21:22:25 24° SW 21:22:25 24° SW
Cosmos 1420 Rocket 3.9 21:19:18 10° NNW 21:24:37 88° W 21:24:48 84° S
Cosmos 2237 4.0 21:19:07 10° NNW 21:24:52 82° ENE 21:25:03 80° ESE
FALCON 9 R/B 3.3 21:22:40 10° WSW 21:25:26 25° SSW 21:25:33 25° SSW
Cosmos 44 4.0 21:21:26 10° SW 21:25:40 45° WNW 21:26:23 41° NNW
Centaur D AC-28 3.2 21:26:29 10° SW 21:30:41 48° SSE 21:30:48 48° SSE
ISS -0.7 21:31:45 10° W 21:33:00 12° WSW 21:33:00 12° WSW
Cosmos 44 Rocket 4.5 21:32:11 10° SW 21:36:34 38° WNW 21:37:30 34° NNW
COSMOS 2428 3.9 21:55:12 10° NNW 21:58:23 35° NNW 21:58:23 35° NNW
Cosmos 2333 Rocket 4.4 21:58:57 10° N 22:00:04 16° N 22:00:04 16° N
Cosmos 2360 Rocket 4.2 22:02:47 10° NW 22:07:10 24° W 22:09:58 16° SW
Atlas Centaur 2 4.2 22:27:40 10° W 22:29:50 25° W 22:29:50 25° W
